Weather History for Flint, MI

Change the Weather History Date:

Monday, October 15, 2012

  Actual Average Record
Temperature  
Mean Temperature 49 °F 50 °F  
Max Temperature 52 °F 60 °F 86 °F (1947)
Min Temperature 45 °F 40 °F 26 °F (1944)
Degree Days  
Heating Degree Days 16 15  
Month to date heating degree days 210 197  
Since 1 July heating degree days 384 407  
Cooling Degree Days 0 0  
Month to date cooling degree days 2 2  
Year to date cooling degree days 855 528  
Moisture  
Dew Point 42 °F    
Average Humidity 73    
Maximum Humidity 80    
Minimum Humidity 65    
Precipitation  
Precipitation T in 0.07 in 1.50 in (1942)
Month to date precipitation 1.34 1.29  
Year to date precipitation 25.64 25.60  
Snow  
Snow 0.00 in 0.00 in 0.00 in ()
Month to date snowfall 0.0 0.1  
Since 1 July snowfall 0.0 0.1  
Since 1 September snowfall 0.0 0.1  
Snow Depth 0.00 in    
Sea Level Pressure  
Sea Level Pressure 29.75 in    
Wind  
Wind Speed 14 mph (WNW)    
Max Wind Speed 26 mph    
Max Gust Speed 35 mph    
Visibility 9 miles    
Events Rain    
T = Trace of Precipitation, MM = Missing Value Source: NWS Daily Summary

Daily Weather History Graph

Daily Weather History Graph

Search for Another Location

Airport:

Trip Planner

Search our weather history database for the weather conditions in past years. The results will help you decide how hot, cold, wet, or windy it might be!

Date:

Astronomy

Oct. 15, 2012 Rise Set
Actual Time 7:49 AM EDT 6:51 PM EDT
Civil Twilight 7:20 AM EDT 7:20 PM EDT
Nautical Twilight 6:47 AM EDT 7:52 PM EDT
Astronomical Twilight 6:14 AM EDT 8:25 PM EDT
Moon 7:59 AM EDT (10/15) 6:48 PM EDT (10/15)
Length of Visible Light 11h 59m
Length of Day
11h 02m
New Moon, 0% of the Moon is Illuminated
Oct 15
New Moon
Oct 21
First Quarter
Oct 29
Full
Nov 6
Last Quarter
Nov 13
New

Hourly Weather History & Observations

Time (EDT) Temp. Windchill Dew Point Humidity Pressure Visibility Wind Dir Wind Speed Gust Speed Precip Events Conditions
12:02 AM 57.2 °F - 53.6 °F 88% 29.45 in 2.5 mi West 31.1 mph 40.3 mph 0.02 in Rain Light Rain
12:12 AM 53.6 °F - 51.8 °F 94% 29.46 in 4.0 mi West 25.3 mph 39.1 mph 0.03 in Rain Light Rain
12:33 AM 53.6 °F - 48.2 °F 82% 29.49 in 10.0 mi West 21.9 mph 32.2 mph 0.03 in   Overcast
12:53 AM 53.1 °F - 48.0 °F 83% 29.49 in 10.0 mi West 24.2 mph 38.0 mph 0.03 in   Overcast
1:53 AM 51.1 °F - 46.9 °F 86% 29.55 in 6.0 mi West 23.0 mph 33.4 mph 0.00 in Rain Light Rain
2:53 AM 50.0 °F - 44.1 °F 80% 29.58 in 10.0 mi West 23.0 mph 29.9 mph 0.00 in   Overcast
3:53 AM 48.9 °F - 43.0 °F 80% 29.59 in 10.0 mi West 17.3 mph 27.6 mph N/A   Overcast
4:53 AM 48.9 °F - 43.0 °F 80% 29.61 in 10.0 mi West 15.0 mph 26.5 mph N/A   Overcast
5:53 AM 48.0 °F - 41.0 °F 77% 29.64 in 10.0 mi West 16.1 mph 24.2 mph N/A   Overcast
6:53 AM 48.0 °F - 41.0 °F 77% 29.67 in 10.0 mi West 16.1 mph 26.5 mph N/A   Overcast
7:53 AM 48.2 °F - 39.2 °F 71% 29.70 in 10.0 mi West 12.7 mph - N/A   Overcast
8:53 AM 48.0 °F - 39.9 °F 74% 29.72 in 10.0 mi West 16.1 mph 21.9 mph N/A   Overcast
9:53 AM 46.9 °F - 39.9 °F 77% 29.74 in 10.0 mi West 15.0 mph 23.0 mph 0.00 in   Overcast
10:53 AM 46.9 °F - 39.9 °F 77% 29.76 in 10.0 mi West 18.4 mph 26.5 mph 0.00 in   Overcast
11:53 AM 48.9 °F - 41.0 °F 74% 29.78 in 10.0 mi WNW 17.3 mph - N/A   Overcast
12:53 PM 48.9 °F - 41.0 °F 74% 29.79 in 10.0 mi West 16.1 mph 23.0 mph 0.00 in   Overcast
1:53 PM 48.9 °F - 42.1 °F 77% 29.81 in 10.0 mi West 16.1 mph - 0.00 in Rain Light Rain
2:53 PM 48.9 °F - 43.0 °F 80% 29.83 in 10.0 mi West 10.4 mph - 0.00 in   Overcast
3:53 PM 48.0 °F - 41.0 °F 77% 29.84 in 10.0 mi West 16.1 mph - N/A   Overcast
4:43 PM 48.2 °F - 41.0 °F 76% 29.85 in 10.0 mi WNW 13.8 mph - 0.00 in   Overcast
4:53 PM 48.0 °F - 39.9 °F 74% 29.87 in 10.0 mi WNW 11.5 mph - 0.00 in   Overcast
5:02 PM 48.2 °F - 39.2 °F 71% 29.86 in 10.0 mi WNW 13.8 mph 21.9 mph N/A   Overcast
5:23 PM 48.2 °F - 39.2 °F 71% 29.87 in 10.0 mi WNW 10.4 mph - N/A   Overcast
5:53 PM 48.0 °F - 39.0 °F 71% 29.88 in 10.0 mi NW 11.5 mph - N/A   Overcast
6:53 PM 46.9 °F - 39.0 °F 74% 29.88 in 10.0 mi West 9.2 mph - N/A   Overcast
7:53 PM 46.9 °F - 39.9 °F 77% 29.91 in 10.0 mi WNW 9.2 mph - N/A   Overcast
8:53 PM 46.9 °F - 37.0 °F 68% 29.92 in 10.0 mi NW 9.2 mph - N/A   Overcast
9:53 PM 46.0 °F 41.9 °F 37.0 °F 71% 29.94 in 10.0 mi NW 8.1 mph - N/A   Overcast
10:53 PM 46.0 °F 43.1 °F 36.0 °F 68% 29.94 in 10.0 mi WNW 5.8 mph - N/A   Overcast
11:53 PM 46.0 °F 42.5 °F 37.0 °F 71% 29.95 in 10.0 mi WNW 6.9 mph - N/A   Overcast